Wind_Speed
4 5 5 4 3 3 3 3 3 2 3 3 4 4 4 4 5 5 5 6 6 6 5 5 4 5 6 7 7 7 7 8 8 9 9 10 11 11 12 12 13 13 14 14 15 15 16 17 17 17 18 19 19 20 20 21 21 22 22 22 22 23 26 28 27 26 25 28 32 28 27 32 34 31 32 35 37 37 39 39 38 38 39 40 41 41 42 42
4 5 5 5 5 5 5 5 5 4 4 4 5 5 5 5 5 6 6 7 7 7 7 7 7 7 8 9 9 9 9 10 11 11 12 13 13 14 14 15 16 16 16 16 17 17 18 19 19 20 20 21 21 22 23 23 24 25 25 24 24 26 29 30 28 28 29 30 34 33 31 33 36 35 34 36 39 38 38 39 39 39 40 41 42 42 43 43
5 5 6 6 6 7 7 7 7 8 8 8 8 7 8 8 8 8 8 9 9 10 10 10 10 10 11 11 12 12 12 12 13 14 15 15 16 16 17 17 18 18 19 19 19 20 20 21 21 22 22 23 22 24 24 24 26 27 26 26 28 28 30 32 30 30 33 33 35 36 34 35 37 38 36 37 39 40 39 39 40 40 40 41 42 43 44 44
6 6 6 7 7 8 9 9 9 9 9 10 10 10 10 10 11 11 11 12 12 12 12 13 13 13 13 14 14 14 14 15 16 16 17 18 18 19 20 20 21 21 21 22 22 22 23 23 24 24 24 25 24 25 25 25 27 28 27 28 30 30 31 33 32 32 35 35 36 37 37 38 38 37 38 38 39 40 40 40 41 41 41 41 42 44 44 45
7 7 8 8 9 10 10 9 9 10 10 10 11 11 12 12 12 13 13 14 14 15 15 15 15 16 16 17 17 17 17 17 18 18 19 20 20 21 22 23 23 23 24 24 25 25 25 26 26 26 27 28 27 27 27 26 28 29 28 29 30 31 33 33 32 33 35 36 37 38 38 40 40 38 37 38 39 40 41 42 42 42 43 43 43 44 45 46
8 9 9 10 11 11 11 11 10 10 10 10 11 12 12 13 14 14 14 15 15 15 16 16 17 17 17 18 18 19 19 19 19 20 20 21 22 23 23 24 25 26 26 27 27 28 28 28 28 28 28 30 30 29 30 28 29 30 30 30 30 31 34 33 32 34 35 36 37 38 39 41 41 39 38 39 40 41 41 42 43 44 45 45 45 46 46 47
10 10 11 11 12 12 12 12 12 11 11 11 11 12 13 14 15 15 16 17 17 16 17 17 18 18 18 19 19 19 19 19 20 21 21 22 23 23 24 25 26 26 27 28 29 29 30 30 31 31 31 31 31 31 31 31 31 31 31 32 31 32 34 34 34 35 36 37 38 39 40 41 41 41 40 40 41 42 42 43 44 45 46 46 47 47 48 49
11 11 12 12 13 13 13 13 12 12 12 12 13 13 13 14 15 16 17 18 19 19 19 19 20 20 20 20 19 19 20 20 20 21 22 23 23 24 24 25 26 26 27 28 29 29 30 31 32 32 32 32 32 31 31 32 31 31 31 33 33 34 34 35 36 36 37 38 39 41 41 42 43 43 43 43 42 43 43 44 44 45 46 47 48 49 49 50
12 13 13 14 14 14 13 12 11 11 12 13 14 14 15 15 16 16 17 18 19 20 20 20 20 21 21 21 20 20 20 20 21 22 22 23 23 24 25 26 26 27 28 28 29 29 30 30 31 31 32 31 32 32 31 31 31 31 31 32 33 34 34 35 37 37 38 39 41 41 42 42 43 44 44 44 44 44 44 45 45 46 47 48 49 50 51 52
13 14 14 15 15 14 12 11 11 11 12 14 15 16 17 17 17 17 18 18 18 19 19 19 19 20 20 20 20 20 20 20 21 21 22 23 23 24 25 26 27 28 29 29 30 30 30 30 30 30 31 31 31 32 32 32 32 32 31 32 34 35 34 35 37 38 39 40 41 41 41 42 43 44 44 45 45 45 45 46 47 48 49 50 51 52 52 53
15 15 15 16 14 12 11 10 11 12 13 14 16 17 18 18 18 17 17 17 17 17 17 18 18 18 19 19 20 20 20 21 21 22 22 23 24 25 25 26 27 28 29 29 30 30 31 30 30 30 30 31 31 31 32 32 33 33 33 33 34 35 36 36 37 38 39 40 41 41 42 42 43 44 45 45 45 46 47 47 48 49 50 51 52 53 54 55
16 16 16 15 12 10 10 10 11 12 13 14 15 15 15 15 15 15 15 15 15 16 16 17 17 18 18 19 19 20 20 21 21 22 23 23 24 25 25 26 27 28 28 29 30 30 30 30 30 30 29 30 31 31 32 32 33 33 33 34 35 36 36 36 37 38 39 40 41 41 42 42 43 45 45 46 46 48 48 49 50 50 51 52 53 55 56 57
17 16 15 12 10 10 10 11 12 12 12 12 12 12 11 11 11 12 13 13 14 15 16 16 17 18 19 20 20 21 21 22 22 23 23 24 24 25 25 25 26 27 28 28 29 29 29 29 29 29 29 30 30 30 30 31 32 33 33 34 35 38 38 37 38 38 38 40 41 42 43 43 44 45 46 47 47 49 50 51 52 52 54 54 55 56 57 58
16 14 11 10 9 10 10 11 12 12 11 12 12 12 12 11 12 12 12 13 14 15 16 17 17 18 19 20 21 22 23 23 23 23 23 23 24 25 25 25 25 25 26 26 27 28 28 29 29 29 29 30 30 30 30 30 31 32 33 35 36 37 38 38 39 40 40 40 41 43 44 44 45 47 47 48 49 50 51 52 53 54 55 56 57 57 58 59
13 11 9 9 9 10 11 11 11 11 11 12 13 13 13 13 14 14 14 15 16 17 17 18 19 19 20 20 20 20 20 20 20 20 20 20 21 22 23 23 24 24 25 25 26 26 27 28 29 29 30 30 29 29 29 29 31 31 33 35 35 37 38 38 39 40 41 42 42 43 44 45 46 48 48 49 49 50 51 52 53 54 55 55 56 57 57 58
10 8 8 8 9 10 10 10 10 10 12 13 13 14 14 15 16 16 17 18 19 19 20 20 20 18 17 16 16 15 15 15 15 15 15 16 17 17 18 19 20 21 23 24 25 26 27 27 29 29 29 29 29 28 29 30 32 33 32 33 34 35 37 38 38 39 40 41 41 42 43 44 45 46 47 48 48 49 50 51 52 52 53 54 54 55 56 56
7 7 8 8 10 10 9 9 10 11 12 13 14 15 16 16 17 18 19 20 20 20 19 18 17 15 14 13 13 12 13 13 13 14 14 15 15 16 16 17 18 18 19 21 22 23 24 25 26 26 25 25 26 26 27 27 30 31 31 32 32 33 35 36 36 38 39 40 40 41 43 43 44 45 46 46 47 48 49 50 51 51 52 53 53 54 55 55
6 7 8 9 9 9 9 10 11 12 13 14 15 17 18 18 19 20 20 19 18 17 15 13 12 11 11 12 12 12 13 13 14 15 15 16 16 16 16 17 17 18 18 19 20 20 21 22 23 23 22 22 23 24 24 25 27 29 30 32 33 34 36 36 37 39 41 40 39 40 42 42 43 44 45 46 47 48 48 49 50 51 52 52 53 54 54 55
6 7 8 8 8 9 10 11 12 14 15 16 16 17 19 19 19 19 18 16 14 12 11 11 11 11 11 12 12 13 13 14 15 15 16 17 17 17 18 18 19 19 19 19 19 20 21 21 22 23 23 23 24 24 25 26 27 28 30 31 33 34 36 36 37 39 41 41 40 40 42 42 43 44 45 46 47 47 48 49 50 50 51 52 53 54 55 56
5 6 7 8 9 10 11 12 13 15 16 17 17 17 17 16 15 14 13 12 10 10 10 10 11 11 12 12 12 14 14 14 16 16 17 18 19 19 20 20 20 20 21 21 20 20 21 22 22 22 23 23 24 25 26 26 27 29 30 31 32 34 35 36 37 39 40 41 41 42 43 44 44 45 46 46 47 48 49 50 50 51 52 53 54 55 55 56
5 7 8 9 9 11 12 13 15 16 16 16 15 13 11 10 10 10 10 9 9 10 10 10 11 11 12 13 13 14 15 16 17 17 19 20 21 21 21 21 21 21 21 22 21 21 22 22 22 23 23 24 25 25 26 27 28 29 30 31 33 33 35 36 38 39 40 40 40 41 43 44 45 46 47 48 48 49 50 50 51 51 52 52 53 53 53 53
7 8 8 9 10 12 13 14 15 14 14 12 11 10 9 9 9 9 9 8 9 10 10 10 11 11 13 14 14 16 18 18 19 20 20 20 20 20 19 19 20 20 20 20 20 20 20 21 21 22 22 23 24 25 26 26 27 28 29 31 32 34 35 36 38 40 42 42 42 43 43 45 46 47 48 49 49 49 49 50 50 50 49 49 49 49 50 50
7 8 9 10 12 13 14 14 12 11 10 9 9 10 10 9 9 8 8 9 9 9 9 11 11 12 14 15 16 19 20 20 20 19 18 18 18 18 18 18 19 19 19 20 21 20 20 21 22 22 23 23 24 25 27 28 28 28 29 31 33 35 36 37 39 41 43 44 44 45 45 45 45 46 47 47 46 46 46 46 46 46 46 46 47 47 48 49
7 8 10 12 13 13 12 10 9 8 8 9 9 9 9 9 9 9 8 9 10 8 9 11 11 13 16 16 17 18 18 17 17 17 17 17 18 19 19 20 20 21 21 22 23 24 24 24 25 25 25 26 26 27 28 30 32 32 33 34 35 36 37 38 40 42 44 46 46 46 46 45 43 42 42 41 40 41 42 42 42 43 44 44 45 46 47 48
8 10 12 12 12 10 9 8 7 8 8 8 8 8 8 9 9 9 8 9 9 8 10 13 13 14 16 15 16 16 15 15 16 17 18 19 20 21 21 22 23 23 24 24 25 25 26 26 27 27 28 29 29 29 30 32 34 35 36 36 37 37 38 39 40 41 43 44 45 45 43 43 43 39 37 36 37 38 39 40 41 41 42 43 45 46 47 49
10 11 11 10 8 7 6 7 7 7 7 7 8 8 9 9 9 9 9 10 10 9 11 12 12 13 13 13 13 14 15 16 17 18 19 21 22 23 24 24 25 26 26 26 26 27 27 28 28 29 29 30 30 31 32 33 34 35 36 37 37 38 38 39 39 39 38 38 40 40 37 39 41 38 35 36 36 37 39 40 42 43 45 46 47 49 50 51
10 9 8 7 6 6 6 6 7 7 7 7 8 8 9 9 9 9 10 10 9 9 10 10 10 11 12 13 14 15 17 18 20 21 22 23 24 24 25 25 26 27 27 27 27 27 27 28 28 29 30 31 31 32 33 33 34 34 35 36 37 37 37 37 36 35 34 33 34 34 32 34 37 36 36 37 38 38 39 42 44 46 48 49 50 50 51 52
7 6 5 5 5 6 6 6 7 7 8 8 8 9 9 9 9 9 9 9 8 8 8 9 10 11 13 15 16 18 19 20 22 23 24 25 25 25 26 26 26 26 26 26 26 27 27 28 29 30 30 31 31 32 33 33 34 35 35 36 36 35 34 34 32 29 29 29 30 29 30 33 35 35 37 39 40 41 43 45 47 48 49 49 50 51 51 51
5 5 5 6 6 6 7 7 7 8 8 8 9 9 9 9 9 8 8 8 9 9 9 10 11 13 14 16 18 20 21 22 23 24 24 25 25 25 25 25 25 25 26 26 26 27 28 29 29 30 30 31 32 33 34 35 35 34 34 33 33 31 29 29 28 26 25 27 28 29 30 35 37 37 40 42 44 46 47 47 47 48 49 49 50 50 50 51
5 6 6 6 6 7 7 7 8 8 9 9 9 9 8 8 9 9 9 8 9 11 11 12 14 15 17 18 20 22 24 25 25 25 25 25 25 25 25 25 26 25 25 26 26 26 28 30 31 32 33 34 34 34 34 34 33 32 31 29 28 27 25 25 26 25 25 26 29 30 31 36 39 40 42 44 46 47 47 47 47 48 49 49 49 50 52 53
6 6 6 7 7 7 8 8 9 8 8 8 8 9 9 9 9 10 10 9 11 13 14 15 17 18 20 21 22 23 24 25 25 25 26 26 26 26 26 26 27 26 26 25 26 28 30 31 32 34 35 35 35 34 32 31 30 28 26 24 24 24 24 24 25 25 26 28 30 32 33 35 37 39 41 42 43 44 45 46 47 48 49 50 52 54 55 57
5 6 6 7 7 8 8 8 8 8 8 9 10 10 10 10 10 10 12 12 12 15 16 17 19 20 21 22 23 23 23 24 24 25 24 24 25 25 25 25 26 28 29 29 31 31 32 33 34 34 34 33 32 30 28 26 24 23 22 21 22 24 26 27 27 28 29 30 32 35 36 36 38 40 40 41 42 43 44 46 48 50 52 54 56 57 58 60
5 6 7 7 7 7 7 7 8 9 10 10 10 10 10 10 11 12 13 14 15 16 18 19 20 21 22 22 23 23 24 24 24 24 24 25 25 24 25 25 26 28 31 33 34 35 36 36 35 34 32 30 28 25 24 22 22 23 24 25 28 30 31 31 32 32 32 33 35 38 39 40 41 41 40 40 42 44 45 48 50 52 55 57 58 59 60 61
6 7 7 7 7 7 8 9 10 10 10 10 10 10 10 11 12 13 14 15 16 17 18 19 20 21 22 23 23 24 24 24 25 25 25 25 26 26 27 27 29 31 32 34 35 36 36 36 35 33 30 28 26 25 24 24 25 27 29 31 33 32 33 33 34 35 36 37 38 40 42 42 42 41 41 42 44 46 48 50 53 55 56 58 59 60 61 61
6 6 6 7 8 9 10 10 11 10 10 10 10 11 11 12 13 15 15 16 17 18 19 20 21 21 22 23 24 25 25 25 25 25 25 25 26 27 28 29 31 33 35 37 37 36 35 34 32 30 28 26 25 24 25 26 28 30 31 32 32 32 32 33 34 36 39 40 39 40 40 41 42 42 43 45 47 49 52 53 55 56 57 59 60 61 62 63
6 6 7 9 10 11 11 10 10 10 10 11 11 11 12 14 14 15 16 17 18 19 20 22 22 23 24 24 25 25 25 26 25 25 25 26 27 28 30 32 34 36 38 38 38 36 34 31 28 25 24 23 23 24 26 27 29 31 32 32 32 33 33 34 36 37 39 40 39 38 39 40 43 44 45 48 50 52 53 55 56 58 59 61 62 63 64 65
7 8 10 11 11 10 10 10 10 10 10 11 11 12 14 14 15 16 17 18 19 20 22 22 23 24 24 25 25 25 26 26 26 27 27 28 29 31 33 35 37 38 40 39 37 34 31 27 24 22 22 22 22 24 26 28 30 31 32 33 33 34 35 37 38 39 40 40 38 38 41 43 45 48 49 50 52 54 55 56 58 61 62 64 65 66 67 67
10 11 11 11 10 10 9 9 10 11 11 11 12 13 15 15 16 17 18 19 21 22 23 23 24 24 24 24 25 25 26 26 27 28 28 30 31 33 35 38 39 40 40 39 36 32 28 25 23 22 23 23 24 25 27 29 31 31 32 33 34 35 36 38 39 41 42 43 42 40 42 44 46 49 50 51 54 55 57 59 61 64 66 67 68 68 68 68
12 12 11 11 10 9 9 10 11 11 11 12 14 15 16 16 17 18 20 21 22 23 24 24 24 24 24 24 25 25 26 27 28 28 30 31 34 36 38 40 41 41 39 36 33 30 27 25 23 23 23 24 25 27 29 31 31 31 33 34 35 36 37 38 39 41 43 45 46 45 45 46 47 49 50 52 55 57 58 60 62 65 67 68 69 69 69 68
12 11 10 10 9 8 9 10 11 11 12 14 16 16 17 17 18 20 21 22 23 24 24 24 24 24 24 24 25 25 26 27 28 29 31 33 35 37 40 41 41 39 37 34 31 28 26 24 23 23 23 24 26 29 30 30 31 33 35 35 35 36 37 38 39 41 44 46 48 50 50 48 48 50 52 54 56 57 58 60 61 64 66 67 69 69 68 67
11 10 10 9 9 9 10 11 11 12 14 16 16 17 17 18 20 21 22 23 24 24 25 25 24 24 24 24 25 26 27 28 28 30 32 34 36 39 41 41 40 37 34 31 28 26 24 23 23 24 24 25 27 28 29 29 31 33 36 37 37 36 38 40 41 43 45 46 48 51 54 51 50 52 54 55 57 57 58 60 62 65 67 68 69 69 69 68
10 9 9 9 10 11 11 11 12 15 16 16 16 17 18 19 21 22 23 24 25 25 25 25 25 24 24 25 26 27 27 28 29 31 33 35 38 40 41 40 37 35 31 28 26 24 24 23 23 23 23 25 27 27 28 30 32 34 35 36 37 38 39 41 43 45 47 47 49 52 55 54 53 54 56 57 58 59 60 62 64 67 69 70 70 71 70 69
10 10 10 10 11 12 12 13 15 16 16 16 17 18 19 20 21 22 23 25 25 26 26 26 25 25 25 25 26 27 28 29 30 32 34 37 39 40 39 38 35 32 29 26 25 24 23 23 23 23 24 26 27 29 30 32 34 35 35 36 38 39 41 43 45 48 49 49 51 53 56 57 56 56 57 59 60 60 62 64 66 69 71 72 72 72 71 70
10 11 11 11 12 12 13 15 16 17 16 16 17 18 19 20 21 23 24 26 26 26 27 26 26 25 25 26 27 28 28 30 31 33 35 38 39 39 38 36 33 30 27 25 24 23 23 23 24 25 27 28 29 31 32 33 36 37 37 37 39 40 42 44 46 48 50 51 53 54 57 58 57 57 59 61 61 62 63 66 68 71 73 74 74 73 72 71
10 12 13 12 12 13 15 16 16 17 17 17 18 19 19 20 22 24 25 26 27 27 27 27 26 25 26 26 27 28 29 30 31 33 36 38 39 38 37 34 31 29 26 25 24 23 23 24 25 26 28 30 31 32 33 34 36 38 39 39 40 41 43 45 47 49 52 54 54 55 57 57 56 57 61 62 62 63 64 67 69 71 73 73 73 73 72 71
11 12 14 13 13 15 16 16 16 17 18 18 19 20 20 22 23 25 26 27 28 28 28 27 26 26 26 27 27 28 29 30 32 34 36 38 38 37 35 33 30 28 26 24 23 23 22 23 25 26 27 29 30 31 33 34 35 37 38 39 40 41 43 45 47 50 53 55 54 54 58 59 56 57 60 60 61 62 63 66 69 71 73 73 73 73 72 71
13 14 14 14 15 16 16 17 17 18 18 19 20 21 22 23 24 26 27 28 29 29 29 28 27 26 26 27 28 28 29 30 32 34 36 37 37 36 34 32 30 27 25 24 23 22 22 22 23 25 27 28 29 30 31 33 34 36 38 39 41 42 43 45 47 49 52 55 55 54 57 59 58 58 59 59 61 62 63 65 68 71 72 73 73 72 71 71
14 15 15 14 15 16 17 17 18 18 19 21 21 22 23 24 25 26 27 28 29 29 29 28 27 27 27 28 28 29 30 30 32 33 35 36 36 35 33 31 29 27 25 24 22 22 22 22 22 23 26 28 29 30 31 32 34 36 37 39 41 43 44 46 47 50 52 55 56 56 56 58 59 60 60 60 62 63 64 66 69 72 73 73 72 72 71 71
15 16 15 15 16 17 17 18 19 20 21 22 23 23 24 25 26 27 28 29 29 29 29 28 28 27 28 28 29 29 30 30 31 33 34 35 35 34 32 31 29 27 25 24 23 22 22 22 23 23 24 26 29 30 31 31 33 35 38 40 42 43 46 47 48 50 53 55 56 57 57 58 60 61 62 61 62 64 65 67 70 73 74 74 73 72 72 72
16 16 16 16 16 18 18 19 20 21 22 23 23 24 25 26 27 27 28 29 30 30 30 29 28 28 28 29 29 30 30 30 31 32 33 34 34 33 31 30 28 27 26 24 24 23 23 23 23 23 24 25 27 28 30 32 33 35 38 40 42 44 47 49 50 52 54 56 57 58 60 60 61 62 63 63 64 65 66 68 71 73 74 74 73 72 72 72
16 17 17 16 17 19 20 20 22 22 23 24 24 25 26 26 27 28 28 29 31 31 31 30 29 28 29 29 30 30 30 31 31 32 32 33 33 32 31 29 28 27 26 25 24 24 24 23 24 24 24 25 27 28 30 32 33 36 39 41 43 46 48 50 51 52 54 56 57 59 61 62 62 62 63 63 65 66 67 69 72 74 75 74 74 73 73 72
17 17 17 17 19 20 21 22 23 24 24 25 25 26 26 27 27 28 29 30 31 31 31 30 29 29 29 30 30 31 31 31 31 32 32 32 32 31 30 29 28 27 26 25 24 24 24 24 25 25 25 27 29 30 31 33 34 36 38 41 44 47 49 49 51 52 54 57 58 60 62 63 63 63 63 63 65 66 67 69 73 75 76 75 75 74 74 73
Wind_Direction
24 19 15 14 17 11 4 4 9 16 16 12 7 4 4 1 355 351 351 349 342 340 337 325 313 309 311 312 311 308 304 300 295 294 295 294 292 293 293 291 290 289 289 288 286 283 279 276 273 270 268 268 268 267 267 267 268 268 268 269 270 269 268 267 270 274 276 276 276 274 273 275 277 276 276 278 278 279 280 282 283 283 283 282 281 281 281 280
10 1 354 347 346 343 333 327 321 320 324 320 318 320 323 323 322 320 318 316 314 312 308 304 298 291 291 291 292 293 294 295 293 292 290 289 288 288 287 287 287 287 287 287 286 285 283 281 279 277 274 273 273 273 273 273 273 272 273 274 272 270 271 272 274 277 276 275 276 277 274 275 277 277 277 278 278 279 281 282 282 281 280 281 281 280 281 280
346 344 341 339 334 329 324 319 313 311 313 311 306 302 303 304 303 302 302 301 299 299 299 298 297 294 292 289 288 287 287 288 288 288 287 287 287 286 286 286 286 286 286 286 286 285 284 283 281 280 278 276 276 276 275 276 275 274 275 276 273 272 273 275 276 277 276 275 277 278 277 275 275 278 279 278 278 279 279 278 278 278 278 279 280 280 280 280
328 331 330 331 327 323 319 314 311 308 308 307 305 301 298 294 292 291 289 288 287 287 289 290 291 292 290 289 288 286 286 286 286 286 287 288 288 287 288 287 287 286 286 285 285 285 285 285 284 284 283 281 279 279 278 277 277 276 277 276 275 275 274 275 277 277 277 278 278 278 279 276 275 278 280 279 279 279 278 278 277 277 277 277 278 278 279 279
317 321 321 322 322 320 318 314 311 308 306 305 303 301 299 295 292 290 288 287 287 286 286 286 286 285 285 285 286 286 286 285 285 286 286 286 286 287 288 288 288 287 287 287 286 286 285 284 285 284 284 283 282 281 281 281 280 280 279 277 278 279 276 277 278 277 277 278 278 278 278 277 278 278 278 279 279 279 279 279 279 278 277 277 276 277 277 278
308 310 313 315 316 318 318 317 315 312 310 309 305 302 301 301 300 298 296 294 293 292 291 290 289 287 287 286 286 287 287 286 286 286 285 284 284 285 285 286 286 286 286 287 287 287 286 285 284 284 283 282 282 281 281 281 281 281 281 280 280 279 279 280 278 277 278 277 277 277 277 278 280 279 277 277 278 279 280 280 280 280 279 279 278 277 277 277
301 303 306 309 311 314 316 317 315 313 313 311 307 305 303 302 303 303 303 301 299 298 296 294 293 292 291 290 290 291 290 290 289 288 287 287 286 285 285 285 285 285 285 285 285 285 285 285 284 284 283 283 282 281 281 280 279 280 280 280 279 278 279 280 278 277 277 277 277 277 278 279 280 280 279 278 278 279 279 280 280 281 281 280 280 279 279 278
295 299 303 306 308 310 312 314 313 313 312 310 307 306 304 303 302 302 301 301 300 300 299 297 296 295 293 292 293 293 294 293 292 291 290 290 290 289 288 287 287 286 285 285 284 284 283 283 282 282 282 282 282 282 281 281 280 279 278 279 278 277 277 277 276 276 276 276 276 277 279 279 279 280 279 279 278 278 278 279 279 279 280 280 280 279 279 279
292 297 301 304 307 309 311 312 312 312 311 309 308 306 305 304 303 301 300 299 300 300 300 300 299 298 297 297 298 298 298 297 295 294 293 293 292 291 290 289 289 288 287 287 286 286 284 283 282 281 281 280 281 281 281 280 280 278 277 278 277 276 275 275 275 275 275 275 275 277 278 278 278 279 279 279 279 279 278 278 279 279 279 279 279 279 279 279
289 294 299 302 306 308 309 310 311 312 312 311 310 309 308 307 305 304 304 304 304 304 303 303 303 302 301 301 301 301 302 300 298 298 297 296 294 293 291 290 289 288 288 288 289 288 288 287 285 283 282 281 280 280 280 280 280 278 278 277 277 276 275 274 275 275 276 276 277 277 277 277 278 279 279 279 279 280 280 279 279 279 279 280 280 280 280 280
287 292 296 301 304 305 306 309 312 314 313 313 311 310 308 307 307 308 310 311 312 311 309 309 308 306 304 303 302 303 303 301 301 300 299 298 296 295 293 291 290 289 288 288 288 289 289 289 287 285 283 281 280 280 280 280 280 280 280 279 278 278 277 277 277 277 277 278 279 279 278 279 280 280 280 280 280 280 280 280 280 280 280 280 281 281 281 281
286 292 296 300 301 302 306 311 313 314 315 315 315 313 311 311 313 315 316 316 316 315 314 313 312 310 308 306 305 305 304 302 302 301 300 300 298 297 296 294 292 291 290 289 288 288 288 288 288 287 284 282 282 280 280 280 280 281 281 281 280 278 277 278 279 279 280 280 280 279 279 280 280 280 280 280 280 280 280 280 280 280 280 280 280 280 280 280
288 293 296 297 297 302 309 313 315 317 319 324 328 331 331 329 326 324 321 319 318 316 315 314 312 311 309 307 307 306 305 304 303 303 302 302 301 299 298 297 296 295 293 291 290 289 288 288 287 287 285 284 282 281 280 280 279 280 279 279 278 278 278 278 278 278 279 279 279 279 279 280 280 280 280 280 280 280 280 280 281 281 281 281 281 281 281 281
289 291 291 292 299 306 312 315 318 320 325 332 337 342 343 340 335 330 325 320 317 314 312 309 308 307 305 304 305 305 306 306 306 306 306 305 304 303 302 301 299 298 297 295 293 291 289 288 287 285 284 283 282 282 281 279 278 278 278 277 277 280 281 281 280 280 279 279 280 281 281 281 280 280 280 280 281 281 281 281 281 281 281 282 282 282 282 282
285 284 286 293 301 308 314 316 319 323 328 333 335 337 339 337 332 327 323 319 315 311 307 305 304 303 302 303 305 306 308 310 312 314 314 314 313 311 309 307 304 302 300 298 296 294 291 289 286 283 282 282 282 283 283 281 278 276 277 279 280 282 282 282 281 282 282 281 281 282 283 282 282 282 282 282 282 282 282 282 283 283 283 283 283 284 284 284
276 278 286 295 303 310 316 318 321 326 329 331 332 333 332 329 325 321 317 314 310 307 306 305 306 305 307 310 312 314 318 321 324 326 328 328 327 325 322 319 314 310 305 301 298 296 295 292 289 287 286 285 283 282 282 282 280 278 278 280 281 281 282 282 282 283 283 283 283 284 285 284 284 285 285 285 285 285 285 285 285 285 285 285 285 285 285 285
271 280 291 301 309 313 317 322 326 330 330 330 330 328 325 322 317 314 311 309 307 306 307 309 311 314 319 323 325 329 332 334 335 336 337 337 336 335 333 331 327 321 314 307 303 300 299 298 296 295 293 288 286 285 284 284 284 285 285 284 284 284 284 284 286 285 284 284 286 288 288 287 287 287 287 286 286 286 286 286 287 287 287 287 287 286 286 286
275 290 301 309 314 318 324 330 332 332 330 328 326 321 318 315 312 309 308 308 309 310 314 317 320 328 332 333 336 339 338 338 338 337 336 336 335 333 332 330 327 324 319 314 310 307 304 302 301 301 299 295 293 292 289 288 288 289 289 289 289 289 288 289 289 288 286 286 286 287 288 288 288 288 288 288 288 288 287 287 287 288 288 288 288 288 288 288
290 301 309 319 324 329 333 334 333 329 325 321 318 315 313 311 310 309 311 313 317 321 326 330 333 339 341 340 340 340 338 336 335 332 329 329 328 326 324 322 321 318 315 313 311 308 306 304 302 302 301 299 296 294 291 289 288 288 288 288 288 289 290 290 289 289 289 289 288 288 288 288 288 288 289 289 289 289 288 288 288 288 289 289 289 289 289 289
302 314 326 333 335 336 334 331 328 322 318 316 315 314 313 312 312 316 321 326 331 334 335 338 340 342 342 339 337 337 333 329 328 325 324 324 323 322 320 318 317 314 312 310 308 306 304 302 301 299 298 297 295 294 292 291 291 290 290 290 289 289 290 290 289 289 289 290 290 290 290 290 290 289 289 289 290 290 290 290 291 291 291 290 290 290 290 290
322 334 338 338 336 333 329 325 321 317 316 318 318 319 321 323 326 329 334 334 334 338 340 341 341 341 339 333 330 330 326 322 321 321 319 319 319 318 316 315 314 312 310 308 308 306 304 302 302 300 299 298 297 296 295 294 294 293 292 291 290 290 290 290 290 290 290 289 289 290 289 290 290 290 290 290 291 292 292 292 292 292 292 292 292 292 292 292
338 340 338 335 330 326 323 321 319 320 323 325 328 333 337 338 334 333 337 338 339 342 343 341 337 336 333 325 322 323 323 320 319 319 320 320 320 320 320 319 318 318 316 314 314 313 309 308 307 306 305 304 302 300 298 296 294 293 292 292 292 291 291 290 290 290 290 290 289 290 290 291 292 293 293 292 293 293 293 293 293 293 294 294 294 294 294 294
338 338 335 329 324 322 323 323 324 329 334 336 338 339 337 336 337 340 345 347 345 343 343 339 331 328 328 323 320 322 323 323 324 326 328 328 330 331 331 330 329 327 326 323 322 320 316 314 313 310 309 306 304 302 299 298 295 293 293 292 292 292 292 292 292 293 293 292 292 293 293 293 294 295 295 296 296 297 297 297 297 297 297 297 297 297 296 296
334 334 330 325 324 325 327 330 333 338 340 340 341 341 342 345 349 352 353 351 346 339 337 336 329 326 327 324 324 325 328 331 333 334 335 335 335 334 331 329 328 326 324 322 320 319 316 314 311 309 307 305 303 301 300 299 297 296 296 295 294 294 295 295 296 296 296 295 295 295 295 294 295 297 298 299 300 300 300 301 302 302 302 302 302 301 300 299
334 331 327 327 329 332 336 341 343 345 347 349 352 354 357 356 354 353 351 349 344 335 334 334 329 328 328 329 331 333 337 340 338 336 335 334 331 328 326 324 323 321 319 317 316 314 311 310 308 306 305 304 302 300 299 298 299 299 299 299 299 298 298 298 298 298 298 298 297 298 300 298 297 300 303 304 305 305 306 307 308 308 307 306 305 305 304 303
332 330 332 335 340 345 350 351 355 1 4 3 2 0 357 353 351 349 346 348 347 337 333 332 331 333 335 338 339 337 338 338 333 331 330 327 324 323 322 321 319 317 315 314 313 311 310 308 307 307 306 305 304 303 302 302 302 302 301 301 300 300 300 299 300 300 301 302 301 302 305 304 301 304 310 312 313 314 315 314 313 311 311 310 310 309 309 308
335 339 345 351 356 4 10 11 14 15 8 1 356 353 350 347 347 344 344 350 350 344 343 343 343 345 344 342 340 335 334 331 328 327 325 323 322 321 319 318 316 316 315 314 313 312 312 311 311 311 310 309 308 307 306 305 304 302 301 300 300 301 301 301 303 304 304 304 304 306 310 309 307 310 313 314 316 317 316 315 314 314 314 314 313 313 312 311
350 1 11 18 24 30 30 24 17 8 357 352 348 347 348 347 348 348 353 2 5 4 5 359 352 349 342 337 334 331 328 327 326 325 323 322 321 320 319 319 319 318 317 317 317 318 318 317 316 314 313 311 310 309 307 305 304 304 303 303 303 303 304 304 305 306 306 307 309 314 318 315 314 316 316 315 315 315 316 317 318 318 317 316 315 314 314 314
23 35 41 44 40 34 25 15 4 356 350 348 347 349 355 359 3 9 17 22 20 15 7 356 349 343 336 331 329 327 326 326 325 324 324 323 323 324 324 324 323 324 324 324 324 323 321 319 317 316 314 313 312 310 309 308 308 307 307 306 305 305 307 307 307 309 314 316 318 322 324 321 320 321 321 319 319 320 321 322 322 320 318 318 317 317 317 316
56 58 52 42 33 22 11 1 355 352 351 353 358 7 17 26 32 33 33 25 13 6 357 349 344 338 334 331 329 329 329 328 328 328 328 328 329 329 329 328 328 329 328 327 326 324 322 321 319 318 316 314 313 312 311 310 310 308 308 309 309 311 314 317 320 324 325 325 325 325 326 325 324 326 326 325 325 325 325 323 322 320 320 319 319 319 318 318
65 54 40 29 20 10 360 354 355 360 6 17 30 39 42 42 39 32 25 13 2 357 351 345 341 337 335 333 333 333 333 332 333 334 334 334 334 334 333 333 331 331 330 328 327 326 324 322 320 318 317 316 315 315 314 313 312 313 315 316 316 319 324 327 329 330 330 330 329 327 327 327 326 328 329 328 326 325 324 323 322 321 321 320 320 319 319 318
54 37 26 17 8 2 359 3 15 29 41 49 52 52 46 37 27 19 13 4 355 351 346 342 340 338 337 336 336 336 336 336 337 337 336 336 335 335 334 334 333 333 332 331 329 327 325 323 321 320 320 320 319 319 319 319 320 322 321 319 320 325 330 330 331 333 334 334 332 329 328 328 328 331 331 328 326 326 325 324 323 322 321 321 321 320 320 319
38 25 16 8 5 10 23 37 51 59 59 57 51 44 37 25 16 11 5 358 351 348 345 342 341 340 339 339 338 338 339 339 339 338 338 338 338 337 337 337 336 335 333 331 330 328 327 326 325 325 324 324 324 324 325 327 331 331 331 333 336 339 340 340 340 340 338 336 334 331 330 330 332 333 331 328 326 326 325 324 323 322 322 322 322 321 321 320
27 15 9 13 26 46 60 65 67 65 59 51 40 29 22 17 11 6 360 354 350 346 344 344 344 343 342 342 341 342 342 342 342 342 342 342 341 340 339 338 336 334 333 332 331 330 329 328 327 327 328 329 330 332 335 339 341 342 344 346 346 346 347 347 344 340 337 337 337 336 335 334 333 333 331 329 327 326 324 324 324 324 324 324 324 323 322 321
17 15 25 46 64 73 74 71 66 58 50 41 27 16 14 12 7 1 356 353 350 348 348 348 348 347 345 345 345 345 344 345 345 344 343 342 341 340 339 337 336 334 333 332 331 331 331 331 331 332 333 335 337 340 345 347 346 347 349 348 348 349 349 346 342 339 338 338 339 339 336 333 332 333 332 329 327 326 325 326 326 325 325 325 325 323 323 322
25 42 63 75 79 78 75 70 60 47 37 30 19 12 13 9 2 359 355 353 353 353 353 352 351 350 349 348 347 346 346 346 346 345 343 342 341 340 339 338 336 335 334 333 333 334 334 336 338 339 340 343 346 349 350 349 348 349 350 350 350 349 346 343 341 340 339 338 340 339 335 333 333 333 332 329 328 327 327 327 326 325 325 326 325 325 325 324
60 75 82 83 80 75 68 62 52 37 28 22 14 12 12 6 1 359 357 357 358 357 356 355 353 351 350 349 348 348 348 347 346 345 344 343 343 341 340 338 337 336 335 335 336 338 339 341 343 343 345 350 355 354 351 350 351 352 352 351 350 347 344 343 342 341 340 338 339 339 336 335 335 333 332 331 329 328 328 328 327 327 328 328 328 328 327 325
84 88 86 81 75 68 59 49 40 32 25 17 14 14 11 5 2 1 1 2 2 360 358 356 353 351 350 350 350 350 349 348 347 346 345 344 343 342 341 339 338 337 337 338 340 341 343 346 348 350 354 356 356 353 351 352 354 354 354 351 348 346 345 345 343 342 341 339 338 338 336 336 335 333 333 331 328 328 329 330 330 330 331 331 330 329 327 326
90 87 82 75 66 58 49 39 32 27 21 16 16 15 8 5 6 6 6 6 3 1 358 355 352 352 351 352 352 351 349 348 347 347 346 346 344 343 341 340 339 339 340 341 343 345 348 350 353 356 358 356 354 353 353 354 354 353 352 350 348 346 345 345 344 343 341 340 338 336 336 338 337 334 333 330 329 330 331 332 332 332 331 331 330 328 327 326
88 81 77 68 56 47 40 32 25 23 22 19 16 12 8 9 10 10 9 6 3 360 357 354 353 352 352 352 352 351 350 349 348 348 347 346 345 343 341 340 340 341 343 345 347 349 350 352 355 357 357 355 355 355 354 355 354 352 350 348 349 347 344 344 344 342 341 341 339 336 336 339 338 334 332 330 330 332 332 331 331 331 331 330 329 328 326 325
84 77 71 59 46 41 35 27 23 23 23 19 13 10 11 12 12 11 9 5 2 359 356 355 354 352 353 353 352 351 350 350 350 349 348 347 345 343 342 341 342 344 346 347 349 351 352 354 356 356 356 355 355 355 354 354 353 352 350 348 348 347 345 344 343 342 342 341 340 337 335 337 339 335 332 331 332 333 332 331 331 331 331 330 329 328 327 327
78 70 61 48 41 38 32 26 26 25 20 15 11 11 13 14 13 10 8 5 2 359 357 355 353 352 353 353 352 352 351 351 351 350 349 347 345 344 343 344 345 346 348 350 351 352 352 354 355 355 355 355 354 354 354 353 352 351 352 349 347 347 346 345 343 342 341 341 340 338 334 337 340 336 333 333 333 333 332 332 332 331 331 331 330 329 330 329
70 62 53 44 39 35 29 27 27 23 18 13 11 13 14 14 12 9 7 5 2 359 357 355 353 353 353 353 353 352 352 352 351 351 350 348 346 346 346 346 348 349 351 352 353 353 353 354 353 353 354 354 354 354 353 353 350 349 351 350 348 347 345 345 344 341 340 340 340 338 335 338 341 337 334 334 334 334 333 332 333 332 332 332 332 331 331 330
64 56 48 41 37 32 29 27 24 19 16 11 11 14 13 11 9 7 6 4 1 359 356 355 354 353 353 352 353 353 352 352 352 352 351 349 348 348 348 350 351 353 354 354 354 355 354 354 353 353 353 353 354 353 352 352 349 347 349 350 349 347 344 344 343 340 339 339 340 339 336 339 342 337 333 334 334 334 334 333 333 334 333 333 333 332 331 330
58 52 44 38 33 30 29 26 21 16 13 10 11 13 11 8 6 4 3 1 360 358 356 354 353 353 353 353 353 353 353 353 353 353 352 351 351 351 352 353 354 355 356 356 357 357 355 355 354 353 353 352 352 352 350 350 348 346 347 347 347 345 342 342 342 340 339 338 340 339 336 339 341 336 333 335 334 334 334 334 334 334 333 333 333 332 331 330
53 48 41 33 30 30 28 22 18 14 10 10 11 10 7 5 3 1 0 359 358 357 355 354 353 353 353 353 353 353 353 354 354 353 353 353 353 354 355 356 356 356 358 358 358 358 357 356 353 351 351 351 350 349 347 347 346 344 343 344 344 342 340 341 342 340 338 337 338 339 336 338 340 336 334 334 333 333 334 333 333 334 333 333 333 333 331 330
49 45 37 29 29 29 24 19 15 12 9 8 9 7 4 2 360 360 359 357 357 356 354 353 352 352 353 353 354 354 353 354 354 354 355 355 356 357 357 358 358 358 359 359 358 358 357 357 354 350 349 348 348 347 345 344 344 342 341 341 341 339 339 340 341 340 337 335 336 337 336 337 338 335 333 333 332 333 334 333 333 334 333 334 334 333 331 330
45 42 33 27 27 26 21 15 12 8 6 7 7 5 2 1 359 359 358 357 356 355 354 353 352 352 353 353 354 353 353 354 354 355 356 357 358 359 359 359 359 358 358 359 359 358 356 355 354 351 347 344 344 344 343 342 341 340 339 338 338 337 338 339 340 338 337 335 335 335 336 337 336 334 334 334 333 333 334 334 334 334 334 335 335 333 331 330
41 38 30 24 24 23 18 12 8 6 5 6 5 3 1 0 359 358 358 357 355 354 353 353 352 352 353 353 353 353 353 353 354 355 357 358 359 360 0 0 360 359 358 358 358 357 355 354 353 351 347 342 341 341 340 340 340 338 336 336 336 337 337 337 338 338 336 334 334 334 335 336 335 334 334 334 333 333 335 335 335 335 335 335 335 334 332 331
38 34 27 21 21 21 15 10 8 6 6 6 4 3 2 1 360 358 358 357 355 355 354 353 353 353 353 353 353 352 352 352 353 354 356 358 360 1 1 1 360 359 358 358 357 355 354 353 350 350 348 343 339 339 339 339 340 337 335 335 336 336 336 336 337 338 336 333 333 334 335 336 336 335 335 334 333 334 335 335 335 335 335 336 335 334 332 332
36 33 26 20 20 21 16 11 9 8 8 6 4 3 2 1 360 359 358 357 356 355 354 353 353 353 353 353 352 352 351 351 352 353 355 357 359 0 1 1 360 359 357 356 355 353 352 350 348 347 347 343 340 341 340 339 339 337 334 335 335 335 335 335 336 337 336 333 333 334 335 336 336 335 335 334 334 334 335 335 335 335 336 336 335 334 333 333
34 32 27 22 23 22 17 13 12 10 9 7 5 4 3 2 1 360 359 358 357 356 355 354 353 353 353 353 352 352 351 351 351 352 353 356 357 359 360 359 358 357 356 355 353 350 349 347 345 344 345 342 339 340 340 339 338 335 333 334 334 334 333 333 335 337 336 333 333 334 335 335 335 335 335 335 334 334 335 336 335 335 336 337 336 335 334 334
Height
5790 5790 5790 5790 5790 5790 5790 5790 5790 5790 5790 5789 5789 5789 5789 5789 5789 5789 5789 5789 5789 5789 5789 5790 5789 5789 5789 5788 5788 5789 5789 5789 5789 5789 5789 5789 5789 5789 5789 5789 5789 5789 5789 5788 5788 5788 5788 5788 5788 5788 5788 5788 5788 5788 5788 5788 5787 5787 5787 5787 5787 5787 5784 5783 5783 5784 5784 5782 5780 5782 5783 5779 5777 5779 5778 5775 5773 5773 5772 5771 5771 5771 5769 5767 5767 5765 5764 5763
5791 5791 5791 5791 5791 5790 5790 5790 5790 5790 5790 5790 5790 5790 5790 5790 5790 5790 5790 5790 5790 5790 5790 5790 5790 5790 5789 5789 5789 5789 5789 5789 5789 5789 5789 5789 5789 5789 5789 5788 5788 5788 5788 5788 5788 5787 5787 5787 5786 5786 5786 5786 5786 5786 5786 5786 5785 5785 5785 5785 5785 5784 5782 5781 5782 5782 5782 5780 5777 5778 5779 5777 5774 5774 5776 5772 5769 5771 5770 5767 5767 5767 5765 5763 5762 5761 5760 5759
5791 5791 5791 5791 5791 5791 5790 5790 5790 5790 5790 5790 5790 5790 5790 5790 5790 5790 5790 5790 5790 5790 5790 5790 5790 5789 5789 5789 5789 5789 5790 5790 5789 5789 5789 5788 5788 5788 5788 5788 5788 5787 5787 5787 5787 5786 5786 5786 5785 5785 5784 5784 5785 5784 5784 5784 5783 5783 5783 5783 5782 5782 5780 5779 5780 5780 5778 5777 5775 5774 5774 5773 5771 5771 5772 5769 5766 5767 5766 5764 5763 5763 5762 5760 5758 5757 5756 5755
5792 5792 5792 5792 5791 5791 5791 5791 5790 5790 5790 5790 5790 5790 5790 5790 5790 5790 5789 5789 5789 5789 5789 5789 5789 5789 5788 5788 5788 5788 5789 5789 5788 5788 5788 5787 5787 5787 5787 5786 5786 5786 5786 5785 5785 5785 5784 5784 5784 5783 5783 5782 5782 5782 5782 5782 5781 5780 5781 5780 5779 5779 5778 5777 5778 5777 5774 5774 5772 5771 5769 5768 5768 5770 5768 5765 5763 5763 5761 5760 5759 5758 5758 5757 5755 5753 5752 5750
5792 5792 5792 5792 5792 5791 5791 5791 5791 5790 5790 5790 5790 5790 5789 5789 5789 5789 5789 5789 5789 5788 5788 5788 5788 5787 5787 5787 5787 5787 5788 5788 5787 5787 5786 5786 5785 5785 5785 5784 5784 5784 5784 5783 5783 5783 5782 5782 5782 5781 5781 5780 5780 5780 5779 5780 5778 5778 5778 5777 5777 5776 5774 5775 5775 5773 5771 5770 5768 5767 5765 5762 5764 5767 5765 5761 5759 5758 5756 5756 5755 5753 5753 5753 5751 5749 5748 5746
5793 5793 5792 5792 5792 5792 5791 5791 5791 5790 5790 5790 5789 5789 5789 5788 5788 5788 5788 5788 5787 5787 5787 5787 5786 5786 5786 5786 5786 5786 5786 5786 5785 5785 5784 5784 5784 5784 5783 5782 5782 5782 5781 5781 5780 5780 5780 5779 5779 5779 5778 5778 5777 5777 5777 5777 5776 5775 5775 5774 5774 5773 5770 5772 5771 5769 5768 5766 5764 5763 5760 5758 5760 5762 5761 5758 5756 5754 5753 5751 5750 5748 5747 5747 5746 5745 5744 5742
5793 5793 5793 5792 5792 5792 5791 5791 5790 5790 5789 5789 5789 5789 5788 5788 5787 5787 5786 5786 5785 5786 5785 5785 5785 5785 5785 5784 5784 5784 5784 5784 5783 5783 5782 5782 5782 5782 5781 5781 5780 5779 5779 5778 5778 5778 5777 5776 5776 5776 5775 5775 5774 5774 5774 5774 5773 5773 5772 5771 5771 5770 5768 5768 5767 5765 5764 5762 5760 5758 5757 5756 5756 5757 5756 5754 5753 5751 5749 5747 5745 5743 5742 5742 5740 5739 5738 5736
5792 5793 5792 5792 5792 5791 5791 5790 5790 5789 5789 5788 5788 5788 5788 5787 5787 5786 5785 5785 5784 5784 5783 5783 5783 5783 5782 5782 5782 5782 5782 5781 5781 5780 5780 5780 5779 5779 5779 5778 5778 5777 5777 5776 5776 5775 5775 5774 5773 5773 5773 5772 5771 5771 5770 5770 5770 5770 5768 5767 5766 5766 5765 5764 5762 5761 5760 5758 5756 5754 5754 5752 5751 5751 5751 5750 5749 5747 5745 5744 5741 5739 5737 5736 5735 5733 5732 5730
5792 5792 5792 5792 5792 5791 5790 5790 5790 5789 5788 5788 5787 5787 5786 5786 5786 5785 5785 5784 5783 5783 5782 5782 5781 5781 5780 5780 5780 5780 5780 5779 5779 5778 5778 5778 5777 5777 5776 5776 5775 5775 5774 5773 5773 5772 5772 5771 5770 5770 5769 5769 5768 5767 5767 5766 5766 5766 5765 5764 5762 5761 5762 5759 5757 5757 5755 5753 5751 5751 5751 5748 5747 5746 5745 5745 5744 5742 5741 5739 5737 5735 5733 5731 5730 5728 5726 5725
5792 5792 5792 5792 5791 5791 5790 5790 5789 5789 5788 5787 5787 5786 5785 5785 5784 5784 5783 5783 5782 5782 5781 5781 5780 5780 5779 5779 5778 5778 5778 5777 5777 5776 5776 5775 5775 5774 5773 5773 5772 5772 5771 5770 5770 5769 5768 5768 5767 5766 5766 5765 5765 5764 5764 5763 5762 5762 5761 5760 5758 5757 5757 5755 5754 5753 5751 5749 5747 5748 5747 5744 5743 5741 5740 5740 5739 5737 5735 5734 5732 5730 5728 5726 5725 5723 5721 5719
5792 5792 5792 5791 5791 5790 5790 5790 5789 5789 5788 5787 5786 5785 5784 5784 5783 5782 5782 5782 5781 5781 5780 5780 5779 5779 5778 5778 5777 5777 5777 5776 5775 5775 5774 5773 5773 5772 5771 5770 5770 5769 5768 5767 5766 5766 5765 5764 5763 5763 5762 5762 5762 5762 5761 5760 5759 5758 5758 5756 5754 5752 5752 5751 5750 5749 5747 5745 5744 5743 5742 5741 5739 5737 5736 5736 5734 5732 5730 5729 5727 5725 5723 5721 5719 5717 5716 5714
5791 5791 5791 5790 5790 5790 5789 5789 5789 5788 5788 5787 5786 5785 5784 5783 5782 5782 5781 5781 5780 5780 5779 5779 5778 5778 5777 5777 5776 5775 5775 5774 5774 5773 5772 5771 5770 5770 5769 5768 5767 5766 5766 5765 5764 5763 5762 5761 5760 5760 5759 5759 5758 5758 5758 5757 5756 5755 5754 5752 5750 5748 5748 5747 5745 5745 5744 5741 5740 5738 5737 5737 5735 5732 5731 5731 5729 5726 5725 5724 5722 5720 5718 5716 5714 5712 5710 5708
5790 5790 5790 5789 5789 5789 5788 5788 5788 5787 5787 5786 5786 5785 5783 5783 5782 5782 5781 5780 5780 5779 5779 5778 5777 5777 5776 5775 5774 5774 5773 5772 5772 5771 5770 5769 5768 5767 5767 5766 5765 5764 5763 5762 5761 5760 5759 5758 5758 5757 5756 5755 5755 5755 5755 5754 5752 5751 5750 5749 5746 5742 5743 5745 5742 5741 5740 5737 5735 5733 5733 5733 5730 5727 5726 5725 5724 5721 5720 5718 5716 5714 5712 5710 5708 5706 5704 5702
5789 5789 5789 5788 5788 5788 5788 5787 5787 5786 5786 5785 5784 5784 5783 5782 5781 5781 5781 5780 5779 5779 5778 5778 5777 5776 5775 5774 5773 5772 5771 5770 5769 5769 5768 5767 5765 5765 5764 5763 5762 5761 5760 5759 5758 5758 5757 5756 5755 5754 5753 5752 5752 5751 5751 5750 5749 5748 5746 5744 5743 5739 5739 5740 5738 5737 5736 5734 5731 5728 5728 5728 5725 5722 5721 5719 5718 5716 5714 5713 5710 5709 5706 5704 5702 5700 5698 5696
5788 5788 5788 5788 5788 5787 5787 5787 5786 5785 5785 5784 5784 5783 5782 5781 5780 5780 5779 5779 5778 5778 5777 5776 5776 5775 5774 5773 5772 5771 5770 5769 5768 5767 5766 5764 5763 5762 5761 5760 5759 5759 5758 5757 5756 5755 5754 5753 5752 5751 5750 5749 5749 5748 5747 5746 5744 5744 5743 5741 5739 5736 5735 5735 5734 5732 5730 5728 5728 5724 5723 5723 5719 5717 5715 5714 5713 5711 5709 5707 5705 5703 5701 5699 5696 5694 5692 5690
5787 5787 5787 5787 5787 5787 5786 5786 5785 5785 5784 5783 5783 5782 5781 5780 5780 5779 5778 5778 5777 5776 5775 5774 5774 5773 5772 5772 5771 5770 5768 5767 5766 5765 5764 5763 5762 5761 5760 5759 5757 5756 5755 5754 5753 5752 5751 5750 5748 5748 5747 5747 5746 5745 5744 5742 5739 5739 5740 5737 5736 5733 5730 5730 5730 5728 5725 5723 5723 5721 5719 5717 5715 5712 5710 5709 5707 5705 5703 5701 5699 5697 5695 5693 5690 5688 5686 5683
5787 5787 5787 5787 5786 5786 5786 5785 5785 5784 5783 5782 5781 5780 5780 5779 5778 5778 5777 5776 5775 5774 5774 5773 5772 5771 5771 5770 5769 5768 5767 5766 5765 5764 5763 5762 5761 5760 5758 5757 5756 5755 5753 5752 5751 5750 5748 5747 5745 5745 5745 5743 5742 5741 5740 5738 5735 5735 5735 5733 5732 5730 5727 5726 5726 5723 5720 5720 5720 5717 5714 5712 5710 5707 5705 5703 5702 5700 5698 5695 5693 5691 5689 5687 5684 5682 5679 5677
5786 5786 5786 5786 5786 5785 5785 5785 5784 5783 5782 5781 5781 5779 5779 5778 5777 5776 5775 5775 5774 5773 5772 5772 5771 5770 5770 5769 5768 5767 5766 5765 5764 5763 5762 5760 5759 5758 5757 5755 5754 5753 5752 5750 5749 5748 5746 5745 5743 5742 5742 5740 5739 5738 5737 5735 5733 5732 5731 5729 5727 5726 5723 5723 5722 5717 5715 5716 5717 5714 5709 5707 5705 5702 5700 5697 5696 5694 5692 5690 5688 5686 5683 5681 5678 5676 5673 5671
5786 5786 5785 5785 5785 5785 5784 5784 5783 5782 5781 5781 5780 5779 5777 5776 5775 5774 5774 5773 5772 5772 5771 5770 5770 5769 5769 5768 5767 5766 5765 5764 5763 5762 5760 5759 5758 5757 5755 5754 5753 5751 5750 5748 5747 5746 5744 5743 5742 5740 5739 5738 5736 5735 5734 5733 5731 5729 5728 5726 5725 5723 5720 5719 5717 5713 5710 5710 5711 5709 5705 5702 5700 5698 5695 5693 5691 5689 5687 5685 5683 5680 5678 5675 5672 5670 5667 5664
5786 5785 5785 5785 5784 5784 5784 5783 5782 5781 5781 5780 5778 5777 5776 5775 5774 5773 5772 5772 5771 5771 5770 5770 5769 5768 5768 5767 5766 5765 5764 5763 5762 5761 5759 5758 5756 5755 5754 5752 5751 5749 5748 5746 5745 5744 5743 5741 5740 5738 5737 5735 5734 5733 5731 5730 5728 5726 5725 5723 5721 5719 5717 5715 5712 5709 5706 5705 5705 5703 5700 5697 5694 5693 5691 5688 5686 5684 5682 5679 5677 5674 5672 5669 5667 5664 5661 5658
5785 5785 5784 5784 5784 5784 5783 5782 5781 5781 5779 5778 5777 5776 5775 5775 5773 5773 5772 5772 5771 5770 5770 5769 5768 5768 5767 5766 5765 5765 5763 5762 5761 5760 5758 5756 5755 5754 5752 5750 5749 5748 5746 5744 5743 5742 5740 5739 5738 5736 5734 5733 5731 5730 5728 5727 5725 5723 5721 5719 5717 5715 5713 5710 5708 5704 5701 5701 5701 5698 5695 5692 5689 5688 5686 5684 5681 5678 5676 5673 5671 5668 5666 5663 5660 5657 5655 5652
5785 5784 5784 5784 5783 5783 5782 5781 5781 5779 5778 5777 5776 5775 5775 5774 5773 5773 5772 5771 5770 5770 5769 5768 5768 5767 5766 5765 5764 5763 5762 5761 5759 5758 5757 5755 5753 5752 5750 5749 5747 5745 5744 5742 5741 5740 5738 5736 5735 5733 5732 5730 5728 5726 5724 5723 5722 5720 5718 5715 5713 5711 5709 5706 5703 5700 5696 5696 5696 5693 5691 5688 5685 5683 5680 5679 5676 5673 5670 5667 5665 5662 5660 5657 5654 5651 5648 5645
5784 5784 5784 5783 5783 5782 5782 5781 5780 5778 5778 5777 5776 5775 5774 5774 5773 5772 5771 5771 5770 5769 5769 5768 5767 5766 5766 5765 5763 5762 5761 5759 5758 5756 5755 5753 5751 5750 5748 5747 5745 5743 5742 5740 5738 5737 5736 5734 5732 5730 5729 5727 5725 5723 5721 5719 5718 5717 5714 5712 5710 5707 5705 5702 5699 5695 5692 5691 5690 5687 5686 5684 5681 5678 5675 5673 5670 5667 5664 5661 5658 5656 5653 5650 5648 5645 5642 5639
5784 5784 5783 5783 5782 5781 5780 5780 5779 5778 5777 5776 5775 5774 5774 5773 5772 5772 5771 5770 5769 5769 5768 5767 5767 5766 5765 5763 5762 5761 5759 5758 5756 5755 5753 5752 5750 5748 5747 5745 5743 5741 5740 5738 5736 5734 5732 5731 5729 5727 5726 5724 5722 5720 5718 5715 5713 5712 5710 5708 5706 5703 5701 5698 5695 5691 5687 5685 5684 5682 5680 5679 5677 5674 5671 5668 5665 5662 5659 5657 5653 5650 5648 5645 5642 5639 5636 5633
5784 5783 5783 5782 5781 5780 5780 5779 5778 5778 5777 5776 5775 5774 5773 5773 5772 5771 5770 5770 5769 5769 5768 5767 5766 5765 5764 5763 5761 5760 5758 5757 5755 5754 5752 5750 5749 5747 5745 5743 5741 5739 5738 5736 5734 5732 5730 5728 5726 5724 5723 5721 5719 5717 5715 5712 5709 5707 5705 5703 5701 5699 5696 5694 5691 5687 5683 5680 5678 5676 5673 5671 5671 5669 5666 5663 5661 5658 5654 5651 5649 5646 5643 5640 5637 5634 5631 5628
5783 5783 5782 5781 5780 5780 5779 5779 5778 5777 5776 5776 5775 5774 5773 5772 5772 5771 5770 5770 5769 5768 5767 5766 5765 5764 5763 5762 5761 5759 5758 5756 5755 5753 5751 5749 5747 5745 5743 5741 5739 5737 5735 5733 5731 5729 5727 5725 5723 5721 5719 5717 5715 5713 5711 5709 5707 5704 5701 5699 5697 5694 5692 5689 5687 5683 5679 5676 5673 5672 5668 5664 5664 5664 5661 5658 5656 5653 5649 5646 5644 5641 5638 5635 5631 5628 5625 5621
5783 5782 5781 5781 5780 5780 5779 5778 5778 5777 5776 5775 5775 5774 5773 5772 5771 5771 5770 5769 5769 5768 5767 5766 5765 5764 5762 5761 5760 5758 5757 5755 5753 5751 5749 5747 5745 5743 5741 5739 5737 5735 5732 5731 5729 5727 5725 5722 5720 5718 5716 5714 5712 5710 5707 5705 5703 5701 5698 5696 5693 5690 5688 5685 5682 5679 5676 5673 5670 5669 5666 5661 5660 5660 5657 5654 5652 5650 5647 5643 5639 5636 5632 5629 5625 5622 5619 5615
5782 5781 5781 5780 5780 5780 5779 5778 5778 5777 5776 5776 5775 5774 5773 5772 5771 5770 5770 5769 5768 5767 5766 5766 5765 5763 5762 5761 5759 5757 5756 5754 5752 5749 5747 5745 5743 5741 5739 5737 5734 5732 5730 5728 5726 5724 5722 5719 5717 5715 5713 5711 5708 5706 5704 5702 5699 5696 5694 5691 5688 5686 5683 5681 5679 5676 5673 5670 5667 5666 5663 5659 5658 5657 5653 5650 5648 5646 5643 5639 5634 5630 5627 5623 5620 5617 5613 5609
5782 5781 5781 5781 5780 5779 5779 5778 5778 5777 5776 5775 5775 5774 5773 5772 5771 5770 5770 5769 5768 5767 5767 5766 5764 5763 5762 5760 5758 5756 5754 5752 5750 5748 5746 5743 5741 5739 5736 5734 5732 5730 5728 5725 5723 5721 5719 5716 5714 5712 5710 5707 5705 5702 5700 5697 5695 5692 5689 5687 5684 5683 5680 5677 5676 5674 5671 5668 5665 5663 5660 5656 5654 5653 5649 5645 5642 5639 5635 5632 5629 5625 5621 5618 5615 5611 5607 5604
5782 5782 5781 5781 5780 5780 5779 5778 5778 5777 5776 5775 5774 5774 5773 5772 5771 5771 5770 5769 5768 5767 5766 5765 5764 5762 5760 5758 5756 5754 5752 5749 5747 5745 5743 5741 5739 5736 5734 5732 5730 5728 5726 5724 5721 5719 5717 5714 5711 5709 5706 5704 5701 5699 5696 5693 5691 5688 5686 5684 5681 5679 5677 5674 5672 5670 5668 5666 5663 5661 5659 5654 5649 5648 5644 5639 5635 5632 5630 5627 5624 5621 5617 5613 5610 5606 5602 5598
5782 5782 5781 5781 5780 5780 5779 5778 5778 5777 5776 5775 5775 5774 5773 5773 5772 5771 5770 5769 5768 5767 5765 5764 5762 5761 5759 5756 5754 5752 5750 5747 5745 5742 5740 5738 5736 5734 5731 5729 5727 5725 5724 5722 5720 5717 5714 5712 5708 5705 5702 5700 5697 5694 5692 5689 5687 5685 5682 5680 5678 5676 5674 5672 5670 5668 5666 5664 5661 5658 5657 5653 5648 5645 5641 5637 5634 5630 5627 5623 5620 5616 5612 5608 5604 5600 5596 5591
5783 5782 5782 5781 5781 5780 5779 5778 5778 5777 5776 5776 5775 5775 5774 5773 5773 5772 5770 5769 5768 5766 5765 5763 5761 5759 5757 5755 5752 5750 5748 5746 5744 5741 5739 5737 5735 5733 5731 5728 5726 5723 5720 5718 5716 5714 5711 5708 5705 5702 5699 5696 5693 5691 5688 5686 5684 5682 5680 5678 5676 5673 5671 5669 5667 5665 5663 5661 5658 5654 5652 5650 5646 5642 5639 5635 5631 5628 5624 5620 5616 5611 5607 5603 5598 5594 5589 5585
5783 5782 5782 5781 5781 5780 5779 5779 5778 5778 5777 5777 5776 5776 5775 5774 5773 5771 5770 5769 5767 5765 5764 5762 5760 5758 5755 5753 5751 5749 5747 5745 5742 5740 5738 5736 5734 5732 5729 5727 5724 5722 5718 5715 5712 5710 5707 5704 5700 5697 5695 5692 5690 5688 5685 5683 5681 5679 5676 5674 5671 5668 5666 5664 5661 5660 5659 5657 5654 5650 5647 5644 5641 5639 5635 5631 5628 5624 5621 5616 5612 5607 5602 5598 5593 5588 5584 5579
5783 5783 5782 5782 5781 5780 5780 5779 5779 5779 5778 5778 5777 5776 5775 5774 5773 5771 5770 5768 5767 5765 5763 5761 5759 5756 5754 5752 5750 5748 5745 5743 5741 5739 5736 5734 5732 5729 5727 5725 5722 5720 5717 5714 5710 5706 5703 5700 5697 5694 5691 5689 5686 5684 5681 5679 5677 5674 5672 5669 5667 5665 5662 5660 5658 5656 5654 5652 5650 5645 5641 5638 5636 5634 5631 5627 5624 5620 5616 5612 5607 5603 5598 5593 5588 5583 5578 5573
5783 5783 5783 5782 5782 5781 5781 5780 5780 5779 5779 5778 5777 5776 5775 5774 5772 5771 5769 5768 5766 5764 5762 5760 5758 5756 5753 5751 5748 5746 5744 5742 5739 5737 5735 5733 5731 5728 5726 5723 5720 5717 5714 5711 5707 5704 5700 5697 5694 5691 5688 5686 5684 5681 5679 5677 5674 5672 5670 5668 5666 5663 5661 5659 5657 5654 5650 5648 5646 5642 5638 5635 5632 5630 5627 5623 5619 5615 5611 5606 5602 5597 5593 5589 5584 5578 5572 5567
5784 5783 5783 5783 5782 5782 5782 5781 5781 5780 5779 5778 5777 5776 5775 5773 5772 5770 5769 5767 5765 5763 5761 5759 5756 5754 5752 5749 5747 5745 5742 5740 5738 5736 5734 5731 5729 5726 5723 5721 5717 5714 5711 5707 5704 5700 5697 5693 5691 5688 5686 5685 5682 5680 5678 5676 5673 5671 5669 5666 5664 5661 5660 5657 5655 5652 5648 5645 5643 5640 5637 5633 5629 5626 5623 5619 5614 5610 5606 5601 5597 5592 5588 5583 5577 5571 5565 5559
5784 5784 5784 5784 5783 5783 5783 5782 5781 5781 5780 5779 5778 5776 5775 5773 5772 5770 5768 5766 5764 5762 5760 5758 5755 5753 5751 5748 5746 5744 5741 5739 5736 5734 5732 5729 5726 5724 5721 5718 5714 5711 5707 5704 5700 5697 5694 5691 5689 5687 5685 5683 5681 5679 5677 5674 5672 5669 5667 5664 5662 5659 5657 5653 5650 5647 5645 5642 5640 5637 5633 5629 5625 5620 5617 5613 5608 5604 5601 5596 5591 5586 5580 5575 5569 5563 5557 5552
5785 5785 5785 5785 5785 5784 5783 5783 5782 5781 5780 5779 5778 5776 5774 5773 5771 5769 5768 5766 5764 5761 5759 5757 5755 5752 5750 5747 5745 5742 5740 5738 5735 5733 5730 5727 5724 5721 5718 5714 5711 5707 5703 5700 5697 5694 5692 5690 5687 5685 5683 5681 5679 5678 5676 5673 5670 5668 5665 5663 5660 5657 5654 5651 5647 5643 5640 5637 5635 5633 5630 5627 5622 5617 5612 5608 5604 5599 5594 5589 5583 5577 5571 5566 5561 5556 5551 5545
5787 5786 5786 5786 5785 5785 5784 5783 5782 5781 5780 5779 5777 5776 5774 5773 5771 5769 5767 5765 5763 5761 5759 5756 5754 5752 5749 5747 5744 5742 5739 5737 5734 5731 5728 5725 5722 5719 5715 5711 5708 5704 5700 5697 5694 5691 5689 5687 5685 5683 5681 5680 5678 5675 5673 5670 5668 5666 5664 5661 5658 5655 5652 5649 5646 5642 5638 5634 5630 5628 5626 5623 5619 5614 5609 5604 5599 5594 5589 5583 5578 5572 5566 5561 5556 5550 5545 5539
5788 5788 5787 5787 5786 5786 5785 5783 5783 5782 5780 5779 5777 5776 5774 5772 5771 5769 5767 5765 5763 5761 5758 5756 5753 5751 5748 5746 5743 5741 5738 5736 5733 5730 5727 5724 5720 5717 5713 5709 5705 5701 5697 5694 5691 5689 5687 5685 5683 5682 5680 5678 5676 5673 5671 5669 5666 5664 5661 5659 5656 5653 5650 5647 5644 5640 5636 5632 5627 5622 5620 5619 5616 5610 5606 5601 5596 5591 5586 5581 5576 5570 5565 5558 5552 5546 5540 5535
5789 5789 5788 5788 5787 5786 5785 5784 5783 5782 5780 5778 5777 5776 5774 5772 5770 5768 5766 5764 5762 5760 5757 5755 5752 5750 5747 5745 5743 5740 5737 5734 5732 5729 5726 5722 5719 5715 5711 5706 5702 5698 5695 5692 5690 5688 5686 5684 5682 5680 5678 5676 5674 5672 5670 5668 5665 5662 5659 5656 5654 5651 5648 5644 5641 5638 5634 5630 5625 5619 5614 5614 5613 5607 5601 5597 5592 5587 5583 5577 5572 5566 5560 5554 5547 5541 5534 5527
5790 5789 5789 5788 5787 5786 5785 5784 5783 5781 5780 5779 5777 5776 5774 5772 5770 5768 5766 5764 5762 5759 5757 5754 5752 5749 5746 5744 5741 5739 5736 5733 5730 5727 5724 5721 5717 5713 5708 5704 5700 5697 5694 5691 5689 5687 5685 5683 5681 5679 5678 5676 5673 5671 5669 5666 5663 5661 5658 5655 5651 5648 5645 5641 5638 5634 5631 5627 5624 5618 5611 5608 5607 5601 5595 5591 5586 5581 5576 5571 5566 5560 5554 5548 5541 5533 5526 5519
5791 5790 5789 5788 5787 5786 5785 5784 5783 5781 5780 5779 5777 5776 5774 5772 5770 5768 5766 5763 5761 5758 5756 5753 5751 5748 5745 5743 5740 5738 5735 5732 5729 5726 5722 5719 5715 5710 5706 5702 5698 5695 5692 5690 5688 5686 5684 5682 5680 5678 5676 5674 5672 5669 5666 5663 5661 5658 5656 5653 5649 5645 5641 5638 5634 5630 5627 5624 5620 5615 5608 5603 5600 5595 5589 5585 5581 5576 5571 5565 5560 5554 5547 5540 5532 5525 5518 5512
5791 5790 5789 5788 5788 5787 5785 5784 5783 5781 5780 5779 5777 5775 5773 5771 5770 5767 5765 5763 5760 5758 5755 5753 5750 5747 5745 5742 5739 5737 5734 5731 5728 5724 5721 5717 5713 5708 5704 5700 5697 5694 5691 5689 5687 5684 5682 5680 5678 5675 5673 5671 5669 5666 5663 5661 5658 5654 5652 5650 5647 5643 5639 5636 5632 5628 5624 5620 5616 5611 5604 5599 5595 5589 5584 5579 5575 5570 5565 5558 5552 5546 5538 5532 5525 5518 5512 5505
5792 5791 5790 5789 5788 5787 5785 5784 5783 5782 5781 5779 5777 5775 5773 5771 5769 5767 5765 5762 5760 5757 5754 5752 5749 5746 5744 5741 5738 5735 5732 5729 5726 5723 5719 5715 5711 5707 5702 5698 5695 5692 5690 5687 5685 5683 5681 5678 5676 5673 5671 5668 5665 5663 5660 5658 5655 5652 5649 5646 5644 5641 5637 5634 5630 5625 5620 5615 5612 5607 5600 5598 5594 5586 5579 5574 5568 5564 5559 5553 5546 5541 5534 5528 5521 5514 5507 5500
5792 5791 5790 5789 5788 5787 5786 5785 5783 5782 5781 5779 5777 5775 5773 5771 5769 5766 5764 5761 5759 5756 5754 5751 5748 5745 5743 5740 5737 5734 5731 5728 5725 5721 5718 5714 5709 5705 5701 5697 5694 5691 5689 5686 5684 5682 5679 5677 5674 5672 5670 5667 5664 5662 5659 5656 5654 5651 5648 5645 5642 5640 5636 5632 5628 5623 5617 5612 5609 5605 5597 5593 5592 5585 5577 5573 5567 5562 5558 5551 5544 5538 5530 5523 5516 5509 5501 5494
5793 5791 5791 5790 5789 5787 5786 5785 5784 5782 5781 5779 5777 5775 5772 5770 5768 5766 5763 5761 5758 5755 5752 5750 5747 5744 5742 5739 5736 5733 5730 5727 5724 5720 5717 5712 5708 5704 5700 5696 5693 5690 5688 5685 5683 5680 5678 5676 5674 5671 5668 5665 5663 5661 5658 5655 5652 5650 5647 5643 5640 5637 5634 5630 5626 5621 5615 5609 5606 5603 5596 5590 5587 5582 5577 5571 5565 5560 5555 5548 5541 5534 5526 5519 5512 5504 5496 5489
5793 5792 5791 5790 5789 5788 5787 5785 5784 5782 5781 5778 5776 5774 5772 5770 5768 5765 5763 5760 5757 5754 5752 5749 5746 5743 5740 5737 5735 5732 5729 5726 5722 5719 5715 5711 5707 5703 5699 5695 5692 5689 5686 5684 5681 5679 5676 5674 5672 5669 5667 5664 5661 5659 5656 5654 5651 5648 5644 5641 5638 5634 5630 5627 5624 5619 5613 5606 5601 5599 5595 5589 5583 5577 5572 5567 5560 5554 5549 5543 5535 5528 5521 5514 5507 5499 5491 5484
5793 5793 5792 5791 5789 5788 5787 5786 5784 5782 5780 5778 5776 5774 5772 5769 5767 5765 5762 5759 5757 5754 5751 5748 5745 5742 5739 5736 5733 5731 5728 5725 5721 5718 5714 5710 5706 5702 5698 5694 5691 5688 5685 5682 5679 5677 5675 5672 5670 5668 5666 5662 5659 5657 5654 5652 5649 5646 5642 5639 5635 5631 5627 5623 5620 5615 5609 5604 5598 5594 5590 5586 5579 5571 5566 5561 5555 5549 5543 5537 5529 5522 5514 5508 5501 5493 5486 5478
5794 5793 5792 5791 5790 5788 5787 5786 5784 5782 5780 5778 5776 5774 5771 5769 5766 5764 5762 5759 5756 5753 5750 5747 5744 5741 5738 5735 5732 5729 5726 5723 5720 5717 5713 5709 5705 5701 5697 5693 5690 5687 5684 5681 5678 5675 5673 5670 5667 5665 5664 5661 5658 5656 5653 5650 5647 5643 5640 5636 5632 5628 5624 5619 5616 5611 5605 5599 5595 5589 5584 5580 5574 5567 5560 5554 5548 5543 5538 5531 5524 5517 5510 5503 5496 5489 5481 5473
5795 5794 5793 5792 5790 5788 5787 5785 5784 5782 5779 5777 5775 5773 5771 5768 5766 5763 5761 5758 5755 5752 5749 5746 5743 5740 5737 5734 5731 5728 5725 5722 5719 5715 5712 5708 5704 5700 5696 5693 5689 5686 5682 5679 5676 5673 5671 5668 5665 5663 5661 5659 5656 5653 5650 5647 5644 5641 5637 5633 5629 5624 5620 5616 5613 5608 5602 5595 5590 5585 5579 5574 5569 5563 5556 5550 5542 5536 5532 5525 5518 5511 5505 5498 5490 5483 5475 5467
5795 5794 5793 5792 5790 5788 5787 5785 5783 5781 5779 5777 5775 5773 5770 5768 5766 5763 5760 5758 5755 5752 5748 5745 5742 5739 5736 5733 5730 5727 5724 5721 5717 5714 5710 5707 5703 5699 5695 5692 5688 5684 5681 5678 5675 5672 5669 5666 5664 5661 5659 5656 5653 5650 5648 5644 5641 5638 5634 5630 5626 5621 5617 5613 5610 5605 5598 5591 5585 5580 5575 5569 5563 5557 5552 5546 5539 5532 5526 5520 5511 5504 5498 5492 5483 5475 5468 5460